VIA003 SKBQ-SVMC

Flight info

Callsign VIA003
Flight time 0h 43m
Altitude 21000
Route BAQ2F BAQ A552 GAVIS GAVIS1
Aircraft MD11/H-SDE1E2E3FGHIJ2J3J4J5M1RWXY/LB1D1

Departure

Time 2026-04-26 13:57
Airport Ernesto Cortissoz International Airport (SKBQ)

Arrival

Time 2026-04-26 14:41
Airport La Chinita International Airport (SVMC)
Time Latitude Longitude Altitude Speed Heading
2026-04-26 13:39 10.89444 -74.77228 74 ft 0 kts 129°
2026-04-26 13:44 10.89443 -74.77228 74 ft 0 kts 129°
2026-04-26 13:45 10.89443 -74.77227 74 ft 0 kts 129°
2026-04-26 13:45 10.89441 -74.77226 74 ft 0 kts 129°
2026-04-26 13:46 10.89442 -74.77227 74 ft 1 kts 129°
2026-04-26 13:46 10.89452 -74.77238 74 ft 2 kts 129°
2026-04-26 13:46 10.89461 -74.77250 74 ft 2 kts 129°
2026-04-26 13:46 10.89471 -74.77262 75 ft 2 kts 129°
2026-04-26 13:47 10.89481 -74.77273 75 ft 2 kts 153°
2026-04-26 13:47 10.89496 -74.77276 75 ft 2 kts 189°
2026-04-26 13:47 10.89508 -74.77271 74 ft 0 kts 219°
2026-04-26 13:47 10.89512 -74.77268 74 ft 0 kts 220°
2026-04-26 13:49 10.89510 -74.77269 74 ft 1 kts 220°
2026-04-26 13:49 10.89499 -74.77279 74 ft 2 kts 220°
2026-04-26 13:49 10.89480 -74.77296 75 ft 4 kts 220°
2026-04-26 13:50 10.89449 -74.77319 75 ft 6 kts 212°
2026-04-26 13:50 10.89406 -74.77344 76 ft 8 kts 210°
2026-04-26 13:50 10.89351 -74.77377 77 ft 9 kts 210°
2026-04-26 13:50 10.89286 -74.77415 78 ft 11 kts 210°
2026-04-26 13:51 10.89209 -74.77457 79 ft 13 kts 207°
2026-04-26 13:51 10.89118 -74.77502 80 ft 15 kts 209°
2026-04-26 13:51 10.89029 -74.77572 81 ft 17 kts 220°
2026-04-26 13:51 10.88933 -74.77653 83 ft 18 kts 219°
2026-04-26 13:52 10.88830 -74.77741 84 ft 20 kts 220°
2026-04-26 13:52 10.88718 -74.77837 86 ft 21 kts 220°
2026-04-26 13:52 10.88600 -74.77938 88 ft 21 kts 220°
2026-04-26 13:52 10.88501 -74.78024 90 ft 14 kts 220°
2026-04-26 13:53 10.88433 -74.78094 92 ft 13 kts 246°
2026-04-26 13:53 10.88433 -74.78194 94 ft 13 kts 279°
2026-04-26 13:53 10.88426 -74.78287 96 ft 14 kts 233°
2026-04-26 13:53 10.88349 -74.78360 98 ft 15 kts 220°
2026-04-26 13:54 10.88264 -74.78432 100 ft 16 kts 219°
2026-04-26 13:54 10.88171 -74.78510 102 ft 17 kts 221°
2026-04-26 13:54 10.88075 -74.78594 104 ft 19 kts 220°
2026-04-26 13:55 10.87909 -74.78735 106 ft 10 kts 220°
2026-04-26 13:55 10.87875 -74.78774 107 ft 11 kts 246°
2026-04-26 13:55 10.87933 -74.78952 108 ft 9 kts
2026-04-26 13:56 10.87971 -74.78935 108 ft 0 kts 39°
2026-04-26 13:57 10.88078 -74.78845 107 ft 62 kts 40°
2026-04-26 13:57 10.88661 -74.78344 95 ft 150 kts 40°
2026-04-26 13:57 10.89597 -74.77529 315 ft 195 kts 42°
2026-04-26 13:57 10.90577 -74.76627 1280 ft 186 kts 41°
2026-04-26 13:58 10.91592 -74.75752 1989 ft 206 kts 39°
2026-04-26 13:58 10.92803 -74.74757 2446 ft 240 kts 39°
2026-04-26 13:58 10.94252 -74.73740 2816 ft 260 kts 22°
2026-04-26 13:58 10.96002 -74.73452 3285 ft 260 kts 353°
2026-04-26 13:59 10.97730 -74.74060 3767 ft 268 kts 326°
2026-04-26 13:59 10.98999 -74.75424 4259 ft 272 kts 298°
2026-04-26 13:59 10.99551 -74.77266 4750 ft 275 kts 275°
2026-04-26 14:00 10.99654 -74.83183 6146 ft 282 kts 272°
2026-04-26 14:00 10.99665 -74.85173 6577 ft 283 kts 260°
2026-04-26 14:00 10.99277 -74.86453 6919 ft 279 kts 241°
2026-04-26 14:01 10.97509 -74.88303 7612 ft 281 kts 206°
2026-04-26 14:01 10.95612 -74.88830 8107 ft 283 kts 181°
2026-04-26 14:01 10.93662 -74.88557 8575 ft 287 kts 161°
2026-04-26 14:01 10.91791 -74.87843 9018 ft 290 kts 163°
2026-04-26 14:02 10.89807 -74.87334 9482 ft 293 kts 170°
2026-04-26 14:02 10.87790 -74.87018 9945 ft 296 kts 173°
2026-04-26 14:02 10.85736 -74.86736 10401 ft 299 kts 168°
2026-04-26 14:02 10.83745 -74.86084 10897 ft 301 kts 155°
2026-04-26 14:03 10.81956 -74.84952 11381 ft 303 kts 140°
2026-04-26 14:03 10.80519 -74.83386 11859 ft 306 kts 124°
2026-04-26 14:03 10.79555 -74.81479 12338 ft 308 kts 108°
2026-04-26 14:03 10.79124 -74.79324 12821 ft 310 kts 95°
2026-04-26 14:04 10.79078 -74.77129 13297 ft 313 kts 89°
2026-04-26 14:04 10.79149 -74.74934 13754 ft 315 kts 88°
2026-04-26 14:04 10.79219 -74.72691 14229 ft 317 kts 89°
2026-04-26 14:04 10.79237 -74.70463 14694 ft 320 kts 91°
2026-04-26 14:05 10.79206 -74.68198 15161 ft 323 kts 91°
2026-04-26 14:05 10.79151 -74.65894 15627 ft 325 kts 92°
2026-04-26 14:05 10.79092 -74.63589 16071 ft 326 kts 92°
2026-04-26 14:05 10.79034 -74.61307 16528 ft 328 kts 92°
2026-04-26 14:06 10.78982 -74.58987 16984 ft 331 kts 92°
2026-04-26 14:06 10.78936 -74.56647 17453 ft 333 kts 91°
2026-04-26 14:06 10.78893 -74.54290 17938 ft 335 kts 92°
2026-04-26 14:06 10.78844 -74.51922 18390 ft 338 kts 92°
2026-04-26 14:07 10.78793 -74.49531 18867 ft 340 kts 91°
2026-04-26 14:07 10.78745 -74.47099 19332 ft 343 kts 91°
2026-04-26 14:07 10.78699 -74.44659 19800 ft 353 kts 91°
2026-04-26 14:07 10.78650 -74.42093 20265 ft 370 kts 91°
2026-04-26 14:08 10.78597 -74.39429 20739 ft 386 kts 91°
2026-04-26 14:08 10.78543 -74.36665 20941 ft 396 kts 91°
2026-04-26 14:08 10.78489 -74.33867 20958 ft 400 kts 91°
2026-04-26 14:08 10.78435 -74.31049 20956 ft 402 kts 91°
2026-04-26 14:09 10.78376 -74.28213 20968 ft 402 kts 91°
2026-04-26 14:09 10.78302 -74.25379 20973 ft 402 kts 91°
2026-04-26 14:09 10.78232 -74.22532 20993 ft 401 kts 91°
2026-04-26 14:09 10.78171 -74.19697 21018 ft 401 kts 91°
2026-04-26 14:10 10.78111 -74.16856 21070 ft 402 kts 91°
2026-04-26 14:10 10.78044 -74.14020 21103 ft 402 kts 91°
2026-04-26 14:10 10.77975 -74.11211 21119 ft 402 kts 91°
2026-04-26 14:10 10.77910 -74.08348 21121 ft 401 kts 91°
2026-04-26 14:11 10.77787 -74.02681 21178 ft 401 kts 91°
2026-04-26 14:11 10.77716 -73.99884 21189 ft 401 kts 91°
2026-04-26 14:11 10.77640 -73.97047 21224 ft 401 kts 91°
2026-04-26 14:12 10.77568 -73.94209 21250 ft 401 kts 91°
2026-04-26 14:12 10.77502 -73.91402 21269 ft 400 kts 91°
2026-04-26 14:12 10.77433 -73.88580 21293 ft 400 kts 91°
2026-04-26 14:12 10.77362 -73.85736 21324 ft 401 kts 91°
2026-04-26 14:13 10.77222 -73.80057 21402 ft 401 kts 91°
2026-04-26 14:13 10.77154 -73.77245 21449 ft 400 kts 91°
2026-04-26 14:13 10.77085 -73.74416 21478 ft 401 kts 91°
2026-04-26 14:14 10.77010 -73.71568 21474 ft 401 kts 91°
2026-04-26 14:14 10.76926 -73.68739 21457 ft 401 kts 91°
2026-04-26 14:14 10.76845 -73.65948 21442 ft 400 kts 91°
2026-04-26 14:14 10.76770 -73.63120 21431 ft 399 kts 91°
2026-04-26 14:15 10.76697 -73.60297 21413 ft 399 kts 91°
2026-04-26 14:15 10.76617 -73.57478 21399 ft 400 kts 92°
2026-04-26 14:15 10.76537 -73.54655 21378 ft 400 kts 91°
2026-04-26 14:15 10.76460 -73.51825 21357 ft 400 kts 91°
2026-04-26 14:16 10.76386 -73.49025 21332 ft 400 kts 91°
2026-04-26 14:16 10.76310 -73.46204 21305 ft 400 kts 91°
2026-04-26 14:16 10.76234 -73.43378 21280 ft 400 kts 91°
2026-04-26 14:16 10.76158 -73.40557 21252 ft 399 kts 91°
2026-04-26 14:17 10.76083 -73.37746 21137 ft 388 kts 91°
2026-04-26 14:17 10.76011 -73.35041 20969 ft 377 kts 91°
2026-04-26 14:17 10.75940 -73.32417 20613 ft 373 kts 91°
2026-04-26 14:17 10.75871 -73.29795 20214 ft 370 kts 91°
2026-04-26 14:18 10.75804 -73.27199 19828 ft 366 kts 91°
2026-04-26 14:18 10.75736 -73.24627 19461 ft 362 kts 92°
2026-04-26 14:18 10.75670 -73.22102 19111 ft 358 kts 92°
2026-04-26 14:18 10.75603 -73.19595 18759 ft 354 kts 92°
2026-04-26 14:19 10.75538 -73.17111 18448 ft 349 kts 92°
2026-04-26 14:19 10.75474 -73.14649 18169 ft 343 kts 92°
2026-04-26 14:19 10.75412 -73.12234 17958 ft 339 kts 92°
2026-04-26 14:19 10.75352 -73.09872 17776 ft 338 kts 92°
2026-04-26 14:20 10.75289 -73.07474 17566 ft 339 kts 92°
2026-04-26 14:20 10.75228 -73.05070 17343 ft 339 kts 92°
2026-04-26 14:20 10.75166 -73.02673 17089 ft 338 kts 92°
2026-04-26 14:20 10.75105 -73.00290 16849 ft 337 kts 91°
2026-04-26 14:21 10.75046 -72.97934 16629 ft 335 kts 91°
2026-04-26 14:21 10.74986 -72.95573 16429 ft 334 kts 92°
2026-04-26 14:21 10.74926 -72.93201 16205 ft 332 kts 92°
2026-04-26 14:21 10.74867 -72.90875 15980 ft 330 kts 92°
2026-04-26 14:22 10.74804 -72.88537 15732 ft 329 kts 92°
2026-04-26 14:22 10.74738 -72.86230 15491 ft 327 kts 92°
2026-04-26 14:22 10.74670 -72.83934 15251 ft 326 kts 92°
2026-04-26 14:22 10.74605 -72.81612 15076 ft 326 kts 92°
2026-04-26 14:23 10.74541 -72.79311 15118 ft 326 kts 92°
2026-04-26 14:23 10.74477 -72.77024 15121 ft 325 kts 92°
2026-04-26 14:23 10.74416 -72.74718 15115 ft 325 kts 92°
2026-04-26 14:23 10.74352 -72.72433 15110 ft 324 kts 92°
2026-04-26 14:24 10.74246 -72.70138 14954 ft 326 kts 94°
2026-04-26 14:24 10.74025 -72.67842 14615 ft 325 kts 97°
2026-04-26 14:24 10.73710 -72.65578 14289 ft 323 kts 99°
2026-04-26 14:24 10.73363 -72.63348 13976 ft 320 kts 99°
2026-04-26 14:25 10.73012 -72.61108 13656 ft 317 kts 99°
2026-04-26 14:25 10.72719 -72.59148 13382 ft 315 kts 98°
2026-04-26 14:25 10.72400 -72.56953 13072 ft 312 kts 98°
2026-04-26 14:25 10.72082 -72.54773 12756 ft 310 kts 98°
2026-04-26 14:26 10.71770 -72.52637 12454 ft 307 kts 98°
2026-04-26 14:26 10.71453 -72.50482 12146 ft 305 kts 98°
2026-04-26 14:26 10.71142 -72.48376 11858 ft 302 kts 99°
2026-04-26 14:26 10.70825 -72.46261 11555 ft 300 kts 99°
2026-04-26 14:27 10.70517 -72.44176 11261 ft 297 kts 98°
2026-04-26 14:27 10.70217 -72.42107 10976 ft 295 kts 98°
2026-04-26 14:27 10.69919 -72.40067 10673 ft 293 kts 98°
2026-04-26 14:27 10.69614 -72.38024 10390 ft 291 kts 98°
2026-04-26 14:28 10.69312 -72.36000 10082 ft 290 kts 98°
2026-04-26 14:28 10.69015 -72.33974 9784 ft 288 kts 99°
2026-04-26 14:28 10.68724 -72.31968 9506 ft 286 kts 99°
2026-04-26 14:28 10.68430 -72.29967 9210 ft 285 kts 99°
2026-04-26 14:29 10.68134 -72.27969 8923 ft 284 kts 99°
2026-04-26 14:29 10.67841 -72.25998 8663 ft 281 kts 99°
2026-04-26 14:29 10.67558 -72.24066 8565 ft 276 kts 99°
2026-04-26 14:29 10.67276 -72.22117 8398 ft 282 kts 99°
2026-04-26 14:30 10.66976 -72.20149 8122 ft 284 kts 100°
2026-04-26 14:30 10.66604 -72.18182 7779 ft 284 kts 104°
2026-04-26 14:30 10.65863 -72.16320 7453 ft 284 kts 119°
2026-04-26 14:30 10.64798 -72.14619 7103 ft 286 kts 125°
2026-04-26 14:31 10.63597 -72.13005 6750 ft 289 kts 128°
2026-04-26 14:31 10.62311 -72.11410 6352 ft 292 kts 129°
2026-04-26 14:31 10.60980 -72.09822 5970 ft 295 kts 129°
2026-04-26 14:31 10.59666 -72.08234 5585 ft 296 kts 129°
2026-04-26 14:32 10.58361 -72.06622 5228 ft 294 kts 128°
2026-04-26 14:32 10.57074 -72.05012 4872 ft 289 kts 128°
2026-04-26 14:32 10.55825 -72.03445 4479 ft 284 kts 128°
2026-04-26 14:32 10.54607 -72.01917 4078 ft 271 kts 128°
2026-04-26 14:33 10.53459 -72.00487 3946 ft 251 kts 128°
2026-04-26 14:33 10.52380 -71.99142 3941 ft 237 kts 128°
2026-04-26 14:33 10.51371 -71.97890 3802 ft 220 kts 128°
2026-04-26 14:33 10.50442 -71.96736 3696 ft 203 kts 128°
2026-04-26 14:34 10.49549 -71.95625 3646 ft 205 kts 128°
2026-04-26 14:34 10.48628 -71.94477 3428 ft 212 kts 128°
2026-04-26 14:34 10.47695 -71.93318 3154 ft 209 kts 128°
2026-04-26 14:34 10.46782 -71.92185 2924 ft 208 kts 127°
2026-04-26 14:35 10.45861 -71.91044 2682 ft 208 kts 127°
2026-04-26 14:35 10.44946 -71.89903 2425 ft 208 kts 127°
2026-04-26 14:35 10.44024 -71.88759 2159 ft 207 kts 127°
2026-04-26 14:35 10.43108 -71.87628 1891 ft 206 kts 128°
2026-04-26 14:36 10.42201 -71.86508 1893 ft 206 kts 127°
2026-04-26 14:36 10.41342 -71.85352 1854 ft 206 kts 116°
2026-04-26 14:36 10.41107 -71.83943 1928 ft 204 kts 80°
2026-04-26 14:36 10.41603 -71.82622 1914 ft 202 kts 63°
2026-04-26 14:37 10.42225 -71.81364 1810 ft 189 kts 63°
2026-04-26 14:37 10.42762 -71.80228 1754 ft 170 kts 64°
2026-04-26 14:37 10.43249 -71.79167 1792 ft 162 kts 59°
2026-04-26 14:37 10.43950 -71.78315 1856 ft 157 kts 40°
2026-04-26 14:38 10.44848 -71.77675 1861 ft 158 kts 30°
2026-04-26 14:38 10.45835 -71.77169 1853 ft 157 kts 25°
2026-04-26 14:38 10.46841 -71.76733 1795 ft 159 kts 22°
2026-04-26 14:38 10.47543 -71.76444 1674 ft 165 kts 22°
2026-04-26 14:39 10.48966 -71.75853 1357 ft 157 kts 23°
2026-04-26 14:39 10.49945 -71.75437 1196 ft 151 kts 23°
2026-04-26 14:39 10.50935 -71.75005 1017 ft 158 kts 24°
2026-04-26 14:39 10.51962 -71.74552 795 ft 161 kts 24°
2026-04-26 14:40 10.52990 -71.74095 575 ft 161 kts 25°
2026-04-26 14:40 10.54023 -71.73643 367 ft 160 kts 21°
2026-04-26 14:40 10.55061 -71.73209 245 ft 160 kts 22°
2026-04-26 14:40 10.56068 -71.72784 240 ft 128 kts 23°
2026-04-26 14:41 10.56602 -71.72558 239 ft 58 kts 22°
2026-04-26 14:41 10.56891 -71.72436 239 ft 34 kts 22°
2026-04-26 14:41 10.57036 -71.72374 239 ft 14 kts 26°
2026-04-26 14:41 10.57046 -71.72282 239 ft 16 kts 142°
2026-04-26 14:42 10.56928 -71.72259 239 ft 19 kts 175°
2026-04-26 14:42 10.56789 -71.72283 239 ft 21 kts 201°
2026-04-26 14:42 10.56639 -71.72346 239 ft 24 kts 203°
2026-04-26 14:42 10.56473 -71.72416 239 ft 27 kts 203°
2026-04-26 14:43 10.56299 -71.72491 239 ft 26 kts 203°
2026-04-26 14:43 10.56145 -71.72558 239 ft 20 kts 203°
2026-04-26 14:43 10.56050 -71.72599 239 ft 8 kts 201°
2026-04-26 14:43 10.55998 -71.72567 239 ft 11 kts 121°
2026-04-26 14:44 10.55961 -71.72485 239 ft 12 kts 113°
2026-04-26 14:44 10.55940 -71.72439 239 ft 3 kts 127°
2026-04-26 14:44 10.55912 -71.72435 239 ft 5 kts 202°
2026-04-26 14:44 10.55885 -71.72430 239 ft 5 kts 135°
2026-04-26 14:45 10.55862 -71.72390 239 ft 8 kts 114°
2026-04-26 14:45 10.55849 -71.72359 239 ft 6 kts 112°
2026-04-26 14:45 10.55841 -71.72339 239 ft 0 kts 112°